Change the Weather History Date:

Sunday, November 27, 2011

  Actual Average (KESC) Record (KESC)
Temperature  
Mean Temperature 32 °F -  
Max Temperature 35 °F 35 °F 50 °F (1990)
Min Temperature 28 °F 23 °F 1 °F (2014)
Degree Days  
Heating Degree Days 32    
Moisture  
Dew Point 27 °F    
Average Humidity 83    
Maximum Humidity 93    
Minimum Humidity 74    
Precipitation  
Precipitation 0.00 in - - ()
Sea Level Pressure  
Sea Level Pressure 29.90 in    
Wind  
Wind Speed 12 mph (NW)    
Max Wind Speed 18 mph    
Max Gust Speed 30 mph    
Visibility 9 miles    
Events Snow    
Averages and records for this station are not official NWS values.
T = Trace of Precipitation, MM = Missing Value Source: NWS Daily Summary

Daily Weather History Graph

Daily Weather History Graph

Search for Another Location

Airport or City:

Trip Planner

Search our weather history database for the weather conditions in past years. The results will help you decide how hot, cold, wet, or windy it might be!

Date:

Astronomy

Nov. 27, 2011 Rise Set
Actual Time 8:06 AM EST 5:07 PM EST
Civil Twilight 7:33 AM EST 5:40 PM EST
Nautical Twilight 6:55 AM EST 6:18 PM EST
Astronomical Twilight 6:19 AM EST 6:54 PM EST
Moon 10:33 AM EST 7:44 PM EST
Length of Visible Light 10h 07m
Length of Day
9h 00m
Waxing Crescent, 8% of the Moon is Illuminated
Nov 27
Waxing Crescent
Dec 2
First Quarter
Dec 10
Full
Dec 17
Last Quarter
Dec 24
New

Hourly Weather History & Observations

Time (EST) Temp. Windchill Dew Point Humidity Pressure Visibility Wind Dir Wind Speed Gust Speed Precip Events Conditions
12:17 AM 37.4 °F 29.8 °F 33.3 °F 85% 29.78 in 10.0 mi NW 11.5 mph 18.4 mph N/A   Overcast
12:37 AM 37.4 °F 29.3 °F 32.0 °F 81% 29.77 in 10.0 mi NNW 12.7 mph - N/A   Overcast
12:57 AM 35.8 °F 28.3 °F 32.2 °F 87% 29.77 in 10.0 mi NNW 10.4 mph 17.3 mph N/A   Overcast
1:17 AM 35.2 °F 27.1 °F 31.6 °F 87% 29.77 in 10.0 mi NNW 11.5 mph 17.3 mph N/A   Overcast
1:36 AM 34.9 °F 26.6 °F 31.5 °F 87% 29.77 in 10.0 mi NNW 11.5 mph - N/A   Overcast
1:57 AM 34.7 °F 26.4 °F 31.1 °F 87% 29.77 in 10.0 mi NNW 11.5 mph - N/A   Overcast
2:17 AM 33.8 °F 25.8 °F 30.2 °F 87% 29.78 in 10.0 mi NW 10.4 mph - N/A   Mostly Cloudy
2:36 AM 34.3 °F 26.5 °F 30.7 °F 87% 29.79 in 10.0 mi NW 10.4 mph - N/A   Overcast
2:57 AM 33.8 °F 24.3 °F 30.2 °F 87% 29.79 in 10.0 mi NNW 13.8 mph - N/A   Overcast
3:17 AM 33.8 °F 25.3 °F 30.2 °F 87% 29.79 in 10.0 mi NNW 11.5 mph 21.9 mph N/A   Overcast
3:37 AM 33.1 °F 23.9 °F 29.5 °F 87% 29.80 in 10.0 mi NNW 12.7 mph 24.2 mph N/A   Overcast
3:57 AM 32.0 °F 22.5 °F 30.2 °F 93% 29.80 in 10.0 mi NW 12.7 mph - N/A   Overcast
4:17 AM 32.4 °F 25.3 °F 29.3 °F 88% 29.80 in 5.0 mi NNW 8.1 mph - N/A Snow Light Snow
4:37 AM 32.2 °F 23.2 °F 29.5 °F 90% 29.80 in 7.0 mi NNW 11.5 mph - N/A   Overcast
4:57 AM 32.2 °F 22.7 °F 29.1 °F 88% 29.81 in 5.0 mi NW 12.7 mph 17.3 mph N/A Snow Light Snow
5:17 AM 32.0 °F 22.5 °F 28.6 °F 87% 29.81 in 7.0 mi NW 12.7 mph - N/A   Overcast
5:37 AM 32.0 °F 23.0 °F 28.4 °F 87% 29.81 in 10.0 mi NNW 11.5 mph - N/A   Overcast
5:57 AM 32.0 °F 22.5 °F 28.4 °F 87% 29.82 in 10.0 mi NW 12.7 mph 16.1 mph N/A   Overcast
6:50 AM 32.0 °F 24.2 °F 28.4 °F 87% 29.84 in 2.0 mi NW 9.2 mph - N/A Snow Light Snow
7:50 AM 30.2 °F 20.2 °F 26.6 °F 86% 29.87 in 7.0 mi NW 12.7 mph - N/A   Overcast
8:50 AM 30.2 °F 18.9 °F 26.6 °F 86% 29.88 in 5.0 mi NW 16.1 mph - N/A   Haze
9:50 AM 30.2 °F 18.1 °F 26.6 °F 86% 29.91 in 7.0 mi NNW 18.4 mph 25.3 mph N/A   Overcast
10:50 AM 30.2 °F 18.5 °F 24.8 °F 80% 29.94 in 10.0 mi NNW 17.3 mph 21.9 mph N/A   Overcast
11:55 AM 30.2 °F 18.5 °F 23.0 °F 75% 29.95 in 10.0 mi NNW 17.3 mph 29.9 mph N/A   Overcast
12:55 PM 28.4 °F 17.5 °F 23.0 °F 80% 29.94 in 10.0 mi NNW 13.8 mph 25.3 mph N/A   Overcast
1:50 PM 28.4 °F 16.2 °F 23.0 °F 80% 29.94 in 10.0 mi NNW 17.3 mph 23.0 mph N/A   Overcast
2:50 PM 28.4 °F 16.2 °F 21.2 °F 74% 29.97 in 10.0 mi NNW 17.3 mph 25.3 mph N/A   Overcast
3:50 PM 28.4 °F 16.2 °F 23.0 °F 80% 29.99 in 10.0 mi NNW 17.3 mph 24.2 mph N/A   Overcast
4:50 PM 28.4 °F 17.0 °F 23.0 °F 80% 30.01 in 10.0 mi NNW 15.0 mph - N/A   Overcast
5:50 PM 28.4 °F 16.6 °F 23.0 °F 80% 30.02 in 10.0 mi NW 16.1 mph 21.9 mph N/A   Overcast
6:50 PM 28.4 °F 19.7 °F 21.2 °F 74% 30.03 in 10.0 mi NW 9.2 mph - N/A   Overcast
7:50 PM 28.4 °F 18.0 °F 23.0 °F 80% 30.05 in 10.0 mi NW 12.7 mph - N/A   Overcast
8:50 PM 28.4 °F 19.1 °F 23.0 °F 80% 30.06 in 10.0 mi NW 10.4 mph - N/A   Overcast
9:50 PM 28.4 °F 18.5 °F 23.0 °F 80% 30.07 in 10.0 mi NW 11.5 mph 16.1 mph N/A   Overcast
10:16 PM 28.9 °F 19.8 °F 22.6 °F 77% 30.07 in 10.0 mi NW 10.4 mph - N/A   Overcast
10:37 PM 29.1 °F 19.4 °F 22.6 °F 77% 30.08 in 10.0 mi WNW 11.5 mph - N/A   Overcast
10:57 PM 29.3 °F 19.6 °F 22.8 °F 77% 30.07 in 10.0 mi NW 11.5 mph - N/A   Overcast
11:16 PM 29.3 °F 20.2 °F 22.8 °F 77% 30.07 in 10.0 mi NW 10.4 mph - N/A   Overcast
11:37 PM 29.1 °F 20.0 °F 22.6 °F 77% 30.07 in 10.0 mi NW 10.4 mph - N/A   Overcast
11:57 PM 28.4 °F 18.5 °F 23.0 °F 80% 30.07 in 10.0 mi NW 11.5 mph - N/A   Overcast